Regional Weather Roundup
Issued by NWS

Home | Current Version | Previous Version | Text Only | Print | Product List | Glossary On
Versions: 1 2 3 4 5 6 7 8 9 10 11 12 13 14 15 16 17 18 19 20 21 22 23 24 25 26 27
000
ASUS45 KBOU 211306
RWRCO

WEATHER ROUNDUP FOR COLORADO
NATIONAL WEATHER SERVICE DENVER/BOULDER CO
700 AM MDT MON APR 21 2014

NOTE: "FAIR" INDICATES FEW OR NO CLOUDS BELOW 12000 FEET WITH NO
SIGNIFICANT WEATHER AND/OR OBSTRUCTIONS TO VISIBILITY.

COZ001>005-013-030-031-211400-
...NORTHWEST COLORADO...

CITY           SKY/WX    TMP DP  RH WIND       PRES   REMARKS
CRAIG          CLEAR     31  29  92 CALM      30.29R
HAYDEN         CLEAR     36  30  80 E10       30.30S
MEEKER         CLEAR     34  30  85 NE5       30.29R WCI  30
MOUNT WERNER   PTCLDY    37  27  65 SW6       30.43R
STEAMBOAT SPGS PTCLDY    32  31  97 E6        30.31R WCI  26
WALDEN         CLEAR     28  23  80 SE3       30.33R
$$

COZ006>008-011-211400-
...WEST CENTRAL VALLEYS...

CITY           SKY/WX    TMP DP  RH WIND       PRES   REMARKS
GRAND JUNCTION PTCLDY    43  38  82 SE12      30.23R
MONTROSE       CLEAR     41  33  73 SE8       30.28R
EAGLE          CLEAR     34  30  86 CALM      30.36R
RIFLE          CLEAR     36  33  89 SE3       30.28R
DELTA          CLEAR     44  35  71 NE8       30.27R
NUCLA            N/A     41  32  70 E7        30.30R
$$

COZ017>023-064>068-211400-
...SOUTHWEST COLORADO...

CITY           SKY/WX    TMP DP  RH WIND       PRES   REMARKS
DURANGO        PTCLDY    37  27  67 W3        30.26R
CORTEZ         CLEAR     35  28  75 NE6       30.25R WCI  30
PAGOSA SPRINGS PTCLDY    35  27  73 CALM      30.31R
TELLURIDE      PTCLDY    36  28  75 SE7       30.37R
WOLF CREEK PAS CLEAR     32  18  55 CALM      30.46R
$$

COZ009-010-012-014-032>034-037-058>063-211400-
...CENTRAL COLORADO...

CITY           SKY/WX    TMP DP  RH WIND       PRES   REMARKS
ASPEN          PTCLDY    32  29  88 CALM      30.33R
BUENA VISTA    PTCLDY    37  28  69 CALM      30.35R
COPPER MTN     CLEAR     34  23  64 W6        30.46R WCI  29
BERTHOUD PASS  MOCLDY    25  16  68 MISG      30.49R
COTTONWOOD PAS PTCLDY    43  27  52 CALM      30.40R
GUNNISON       PTCLDY    28  25  86 CALM      30.39S
KREMMLING      MOCLDY    30  28  93 CALM      30.37R
LEADVILLE      PTCLDY    25  21  85 NE3       30.39R
MONARCH PASS   CLEAR     32  21  64 E6        30.56R WCI  26
SALIDA         PTCLDY    39  31  74 W3        30.42R
SUNLIGHT       CLEAR     37  28  70 CALM      30.44R
WILKERSON PASS CLEAR     32  23  69 N6        30.46R WCI  26
$$

COZ069>075-211400-
...SAN LUIS VALLEY/SANGRE DE CRISTO MOUNTAINS...

CITY           SKY/WX    TMP DP  RH WIND       PRES   REMARKS
ALAMOSA        CLEAR     32  29  88 S5        30.31R WCI  27
LA VETA PASS   CLOUDY    37  30  75 CALM      30.40R
SAGUACHE       PTCLDY    41  30  65 NW12      30.32R
$$

COZ035-036-038>040-211400-
...NORTHERN COLORADO FRONT RANGE...

CITY           SKY/WX    TMP DP  RH WIND       PRES   REMARKS
DENVER INTL AP PTCLDY    46  32  58 NW6       30.32R
DMNS CITY PARK   N/A     47  33  57 NW1       30.32S
AURORA         PTCLDY    43  32  65 NW5       30.33R
FRONT RANGE AP NOT AVBL
ERIE MUNI ARPT CLEAR     39  36  89 CALM      30.32R
BOULDER MUN AP CLEAR     45  34  65 SW5       30.31S
CENTENNIAL     PTCLDY    44  30  57 CALM      30.33R
BROOMFIELD     PTCLDY    46  30  53 NW3       30.33R
FORT COLLINS   CLEAR     45  28  53 CALM      30.33R
LONGMONT       CLEAR     42  34  73 W5        30.33S
$$

COZ041-046-047-076>085-087-088-211400-
...PIKES PEAK/PALMER DIVIDE AND SOUTHERN FOOTHILLS...

CITY           SKY/WX    TMP DP  RH WIND       PRES   REMARKS
COLO. SPRINGS  PTCLDY    46  31  55 N16       30.30R
A. F. ACADEMY  PTCLDY    42  33  72 N15       30.31R
ELLICOTT       NOT AVBL
FALCON         PTCLDY    41  31  66 N18G25    30.30R
FORT CARSON    MOCLDY    48  33  56 N24G32    30.26R
LIMON          PTCLDY    41  32  70 NW15      30.29R
MONUMENT HILL  PTCLDY    36  32  87 NW9       30.33R
TRINIDAD       CLEAR     46  37  71 W12       30.23R
$$

COZ042>045-048>051-090-091-211400-
...NORTHEAST COLORADO...

CITY           SKY/WX    TMP DP  RH WIND       PRES   REMARKS
GREELEY ARPT   CLEAR     39  28  65 W6        30.31R
AKRON          MOCLDY    42  29  59 W9        30.26R
BURLINGTON     PTCLDY    46  31  55 N13       30.20R
WRAY           PTCLDY    44  34  68 W5        30.21R
STERLING       PTCLDY    45  32  61 N6        30.25R
HOLYOKE        SUNNY     46  30  53 N12       30.21R
FORT MORGAN    PTCLDY    42  28  58 NW6       30.29R
$$

COZ086-089-092>099-211400-
...SOUTHEAST COLORADO...

CITY           SKY/WX    TMP DP  RH WIND       PRES   REMARKS
PUEBLO         MOCLDY    53  35  50 N30G39    30.21R
LA JUNTA       PTCLDY    51  37  58 NW7       30.21R
LAMAR          CLEAR     51  38  60 N10       30.13R
SPRINGFIELD      N/A     52  40  63 NW20      30.13R
$$



USA.gov is the U.S. government's official web portal to all federal, state and local government web resources and services.